Orbital Elements
Epoch 2010 June 13.0 TT = JDT 2455360.5
T 2010 July 1.75180 TT MPC
q 1.3576243 (2000.0) P Q
n 0.16091436 Peri. 191.46931 +0.15734146 -0.95316168
a 3.3476458 Node 249.89577 +0.92642047 +0.23305968
e 0.5944540 Incl. 15.96650 +0.34203623 -0.19278486
P 6.13
From 2192 observations 1996 Sept. 17-2010 Dec. 7, mean residual 0".7.
Nongravitational parameters A1 = +0.27, A2 = -0.0138.
|